Vertical_Velocity
0 -1 2 0 2 3 2 1 3 -0 0 -2 -1 -1 -0 -2 -4 -0 1 -3 -4 -4 -3 -1 -3 -1 -1 0 -1 -1 -1 -2 -1 -3 -2 -2 -0 1 0 0 -0 -0 0
0 -0 2 2 3 3 2 2 3 4 2 3 1 -1 1 -0 -1 -2 -1 -3 -1 -3 -1 -5 -3 -2 -1 -0 -0 1 0 0 -0 -1 -0 -2 -1 0 -0 1 1 1 1
-1 -1 3 2 4 3 2 4 4 3 1 3 1 0 0 -0 1 1 -1 0 -1 1 -3 -2 -1 -1 0 1 -1 1 0 -2 -1 -1 1 0 -1 -2 -1 -1 0 1 1
-0 1 -1 -1 -1 0 2 1 2 3 2 1 1 2 3 3 3 -0 -1 -1 0 -0 -1 -2 -2 -1 1 1 -0 -1 -1 -2 1 1 2 -1 2 2 -1 6 1 1 3
-2 1 1 -3 -0 -1 -1 0 1 2 1 -1 1 -0 1 1 0 -0 -0 -0 0 0 -0 0 -1 0 -0 -0 -2 -3 -1 -2 0 3 6 4 2 0 2 3 1 1 -1
2 -1 -0 2 -6 -7 -5 -2 1 0 0 1 -0 -0 1 -1 -1 -0 3 1 -0 0 0 -2 -3 -2 1 -1 -2 -5 0 -1 -3 -0 -0 -1 1 -1 4 3 0 -5 1
2 4 0 4 6 -1 2 1 -5 -4 -0 -0 1 2 2 4 3 2 1 1 3 4 4 2 4 1 -3 -2 -2 -3 -2 -0 -1 -3 -0 -1 8 3 -0 0 5 -1 -1
-2 1 5 1 1 7 0 1 2 2 -2 -5 -5 -4 -1 0 3 3 2 2 2 2 5 6 2 1 1 5 3 1 -4 -3 -0 -2 -1 -2 -2 1 4 -2 4 3 0
2 -0 0 2 1 -1 3 1 4 3 3 2 5 3 -4 -6 -5 -2 1 2 0 0 2 2 3 2 -0 0 3 5 1 -4 -3 -2 -2 -1 -3 -3 -1 8 3 -2 1
4 3 2 1 1 0 0 0 -2 1 1 2 2 -1 1 4 2 -1 -2 -4 -2 0 -1 -1 0 2 3 1 -2 -0 2 0 -0 -4 -2 -4 -3 -3 -4 -1 -0 1 -0
2 1 1 3 1 2 2 3 -0 0 1 3 2 1 2 2 1 1 -2 0 -1 -5 -3 0 1 1 -2 -3 2 3 4 5 7 5 1 -0 -3 0 -5 -9 -8 -1 -4
1 1 1 2 2 1 2 2 0 1 4 1 -0 1 0 -2 -0 1 3 2 0 3 3 -2 -3 3 1 6 3 -1 -3 2 -2 4 2 4 -2 -6 2 8 -1 -3 -2
0 -1 -1 -1 -2 -1 -1 -2 -0 0 1 0 -1 0 0 -0 0 -1 -1 -2 -0 0 2 1 2 0 -1 1 -1 4 4 -1 1 2 0 -4 -1 -5 -3 -2 1 5 1
-2 -1 -1 -2 -0 1 -0 -0 -1 -3 -0 1 1 2 1 -3 -0 -2 -1 -1 0 -1 -0 4 -0 2 2 2 2 -1 -3 3 1 2 8 11 10 1 -1 -4 -5 -6 0
0 -2 -1 -1 -2 -1 -2 -0 1 0 -0 -2 -1 -0 0 0 -2 1 0 1 0 2 2 1 1 1 1 1 0 -4 -5 -3 -2 -2 3 2 14 7 2 -2 -3 -4 7
2 -1 -4 -3 -2 -2 -1 -0 -0 -1 -1 -1 -0 1 -0 1 1 -0 -1 2 0 -1 -1 2 2 0 1 0 0 1 3 -2 -2 -3 -2 -4 0 9 -0 -14 -1 -27 -36
1 -3 -1 -0 -2 -1 -1 0 -0 -0 -0 -2 1 -2 -0 1 1 1 -2 -1 -0 -1 -2 -1 -1 -0 0 3 3 -0 1 -0 1 -1 -4 -2 -0 3 -10 7 14 13 -14
-0 -2 -1 -1 -0 0 -2 2 0 2 2 1 -2 -1 -2 -2 -1 -2 -3 -5 -3 -2 -1 -2 -0 0 -2 -0 1 5 1 -2 -3 -1 -3 -2 -1 -2 -2 10 -14 10 -1
-2 -1 -1 -2 -0 -1 -2 1 1 2 2 0 -1 -3 -2 -2 -1 -1 -1 -1 -2 -3 -3 -3 -4 -4 -1 0 0 -2 -0 -0 -1 -4 -6 -2 -3 1 1 5 -3 7 -5
-1 -1 -1 -1 -3 -2 0 1 -0 0 1 1 0 -1 -1 -1 -1 -1 -0 1 2 1 1 -2 -2 -2 -5 -2 1 3 1 1 2 -3 -4 -3 -2 -0 0 9 3 0 4
-2 -2 -2 -0 -1 -3 -2 -3 -1 -1 -0 -1 -2 -2 -2 -1 -1 -1 -1 -3 -2 -0 -2 -2 -2 -2 -2 -6 -4 2 -1 2 4 3 2 -3 -2 -3 1 5 2 -6 -7
-1 -0 -1 -1 0 -2 -2 -3 -1 -1 -0 2 2 -1 -1 -3 -2 -2 -3 -3 -3 -3 -2 -3 -3 -3 -3 -6 -6 -9 1 2 4 -3 1 1 -2 -5 -5 -3 11 1 1
-0 -1 -3 -1 0 -1 -0 -0 -0 -0 -1 -2 -1 -1 -3 -1 -1 -2 -3 -3 -1 -2 -3 1 1 -7 -5 0 -9 -2 -8 -5 7 -2 1 3 5 -1 -3 -5 1 6 -2
1 1 -1 -1 -0 0 -2 -2 -1 -0 -2 -4 -4 -2 -5 -6 -6 -5 -4 -5 -4 -3 -1 -1 -1 -0 -3 -2 2 -2 0 -4 -3 7 -0 -2 6 9 2 0 -2 -4 3
5 2 -0 -2 -2 -2 -3 -2 -2 -2 -1 -2 -6 -5 -3 -4 -5 -5 -5 -4 -4 -4 -4 -0 -8 4 -1 -1 -0 2 2 -0 -1 -9 5 6 2 2 -1 15 4 2 -4
2 1 -0 0 -2 -3 -1 0 -1 -2 -2 -3 -6 -5 -4 -3 -0 -2 -1 -2 -2 -2 -2 -5 -3 2 8 -3 -2 -2 -1 0 6 -3 -9 6 -1 11 1 7 4 1 4
Height
3167 3168 3170 3171 3172 3172 3173 3173 3173 3173 3173 3173 3172 3171 3171 3170 3170 3170 3169 3169 3168 3167 3166 3165 3165 3165 3165 3166 3165 3165 3165 3165 3164 3163 3163 3163 3164 3163 3164 3164 3164 3164 3163
3167 3168 3170 3171 3172 3172 3173 3173 3174 3174 3174 3174 3173 3172 3172 3171 3171 3170 3170 3169 3169 3169 3168 3167 3166 3166 3166 3165 3165 3165 3165 3165 3164 3164 3164 3164 3164 3164 3164 3164 3165 3165 3165
3166 3168 3169 3170 3171 3172 3172 3173 3174 3174 3174 3173 3173 3173 3172 3172 3171 3171 3170 3170 3169 3169 3169 3168 3168 3167 3166 3166 3165 3165 3165 3165 3164 3164 3164 3165 3165 3165 3165 3165 3166 3166 3166
3166 3166 3168 3169 3170 3171 3171 3172 3172 3173 3173 3173 3173 3172 3172 3172 3171 3171 3171 3170 3170 3170 3169 3169 3169 3168 3167 3167 3166 3165 3164 3164 3164 3164 3165 3165 3166 3166 3166 3166 3167 3167 3167
3163 3164 3165 3167 3168 3169 3170 3170 3171 3171 3172 3171 3171 3171 3171 3171 3171 3171 3171 3170 3170 3170 3170 3170 3170 3169 3168 3167 3166 3165 3165 3164 3164 3164 3164 3166 3166 3167 3168 3168 3168 3168 3168
3163 3163 3164 3165 3165 3166 3167 3168 3169 3169 3170 3170 3170 3170 3170 3170 3170 3169 3169 3170 3170 3170 3170 3170 3170 3170 3169 3168 3166 3166 3165 3164 3164 3164 3164 3165 3166 3166 3168 3167 3167 3168 3168
3163 3164 3165 3165 3165 3166 3167 3167 3167 3167 3168 3168 3168 3168 3168 3168 3168 3168 3168 3167 3168 3168 3168 3168 3168 3168 3168 3168 3167 3166 3165 3165 3164 3164 3163 3164 3164 3165 3166 3166 3167 3167 3167
3163 3164 3164 3165 3165 3166 3166 3166 3167 3166 3166 3166 3165 3166 3165 3165 3165 3165 3165 3166 3165 3165 3166 3166 3166 3165 3165 3165 3165 3164 3163 3162 3163 3163 3163 3164 3164 3164 3165 3165 3165 3165 3165
3162 3163 3163 3163 3164 3164 3164 3165 3165 3165 3165 3165 3165 3164 3163 3162 3162 3162 3162 3162 3162 3162 3162 3163 3163 3163 3162 3162 3162 3161 3160 3160 3161 3161 3161 3161 3162 3162 3162 3164 3164 3164 3163
3161 3161 3162 3162 3162 3162 3162 3162 3162 3162 3162 3162 3162 3161 3161 3161 3159 3159 3158 3158 3158 3157 3157 3157 3157 3158 3158 3159 3158 3158 3158 3158 3158 3160 3160 3159 3160 3161 3161 3162 3162 3162 3161
3160 3160 3160 3159 3159 3159 3159 3158 3158 3158 3158 3158 3158 3158 3158 3158 3158 3157 3156 3155 3155 3154 3153 3152 3152 3152 3153 3153 3153 3155 3153 3155 3155 3155 3156 3156 3157 3158 3158 3159 3158 3158 3159
3155 3156 3156 3156 3155 3154 3154 3153 3153 3154 3154 3154 3154 3154 3154 3153 3153 3153 3153 3152 3152 3151 3151 3149 3147 3147 3148 3147 3147 3148 3147 3148 3150 3151 3151 3152 3152 3152 3152 3153 3154 3154 3154
3151 3150 3150 3150 3149 3149 3148 3148 3148 3148 3149 3150 3149 3149 3148 3148 3148 3148 3148 3147 3147 3146 3145 3144 3144 3144 3143 3142 3143 3141 3142 3144 3145 3146 3145 3145 3145 3144 3145 3145 3146 3148 3150
3149 3147 3145 3144 3143 3142 3142 3141 3141 3142 3143 3143 3143 3144 3143 3142 3141 3141 3141 3141 3140 3140 3139 3139 3139 3139 3138 3137 3138 3138 3137 3138 3137 3138 3138 3138 3138 3138 3138 3139 3141 3143 3143
3144 3142 3140 3139 3137 3137 3136 3136 3135 3135 3135 3135 3136 3136 3136 3136 3135 3135 3134 3134 3133 3133 3133 3132 3132 3132 3131 3132 3132 3132 3132 3131 3132 3132 3131 3131 3131 3132 3131 3134 3136 3137 3139
3140 3138 3135 3133 3131 3131 3130 3129 3129 3129 3129 3129 3128 3128 3128 3128 3128 3128 3127 3127 3126 3126 3125 3124 3124 3123 3122 3123 3123 3124 3124 3124 3123 3124 3123 3124 3123 3124 3125 3122 3126 3128 3128
3136 3133 3131 3129 3126 3125 3123 3123 3123 3123 3123 3123 3122 3122 3121 3121 3120 3120 3120 3119 3118 3117 3117 3117 3116 3115 3114 3113 3113 3114 3114 3115 3116 3116 3114 3114 3115 3115 3116 3114 3115 3120 3118
3130 3128 3126 3124 3122 3120 3118 3118 3118 3117 3117 3116 3116 3116 3115 3114 3114 3113 3113 3112 3111 3110 3109 3108 3107 3106 3105 3104 3104 3104 3105 3106 3107 3106 3106 3106 3107 3107 3107 3109 3112 3110 3111
3125 3123 3120 3118 3117 3116 3114 3113 3113 3112 3111 3110 3110 3109 3109 3108 3107 3107 3107 3105 3104 3103 3102 3101 3100 3098 3097 3096 3095 3095 3096 3096 3097 3097 3097 3098 3099 3099 3100 3101 3103 3103 3101
3122 3119 3117 3115 3112 3110 3109 3108 3108 3106 3105 3105 3104 3103 3102 3101 3100 3099 3099 3098 3097 3095 3093 3091 3090 3088 3086 3085 3085 3086 3086 3086 3088 3088 3089 3090 3091 3091 3092 3092 3095 3095 3092
3118 3116 3113 3111 3109 3107 3106 3105 3104 3103 3102 3101 3100 3099 3097 3096 3094 3093 3092 3090 3089 3087 3085 3083 3080 3079 3077 3075 3075 3075 3075 3075 3077 3079 3080 3082 3082 3083 3084 3083 3082 3085 3084
3112 3110 3108 3106 3105 3103 3101 3100 3100 3099 3097 3096 3096 3095 3093 3092 3091 3089 3087 3085 3082 3080 3078 3075 3073 3071 3069 3065 3064 3064 3065 3067 3067 3068 3069 3071 3074 3074 3075 3076 3074 3076 3077
3106 3105 3103 3102 3101 3099 3097 3096 3095 3093 3092 3091 3091 3091 3089 3087 3085 3084 3081 3079 3076 3074 3071 3067 3065 3063 3060 3059 3056 3056 3055 3056 3058 3059 3060 3062 3064 3064 3066 3069 3069 3068 3071
3100 3100 3099 3097 3095 3094 3093 3092 3091 3090 3088 3086 3085 3085 3085 3084 3082 3079 3076 3074 3070 3066 3063 3060 3057 3054 3051 3050 3049 3046 3047 3046 3047 3050 3051 3051 3054 3056 3056 3057 3060 3060 3059
3094 3094 3093 3092 3091 3090 3089 3089 3087 3086 3084 3082 3082 3081 3080 3078 3075 3073 3070 3066 3062 3059 3055 3053 3050 3046 3042 3040 3038 3038 3037 3035 3037 3036 3038 3042 3043 3044 3047 3049 3049 3051 3052
3089 3088 3087 3087 3087 3086 3085 3085 3084 3083 3081 3080 3079 3077 3075 3072 3069 3066 3062 3058 3054 3051 3047 3044 3040 3038 3034 3030 3029 3028 3027 3026 3026 3024 3024 3027 3031 3034 3036 3039 3040 3040 3042